Oriana — ZCDU9 — position and weather

sailwx.info

Track history (hours):
 
Tides and Currents Weather Stations Pressure Air Temp Water Temp Dewpoint Dewpoint Depression Visibility Wind Speed Wind Dir Waves Ship Positions

Oriana (Bermuda)

Last reported at 2014-Oct-26 08:09 UTC. Time now 2014-Oct-26 09:25 UTC.
Position N 51°20' E 003°13'.

Length 261 m; beam 32.2 m; draft 8.2 m.

Type: Ship. MMSI: 310529000.

Date/timePositionNaut miles runAvg speedWind from/ knotsBaromVisibWave heightAir tempDewpointWater temp
2014-Oct-26 08:09N 51°20' E 003°13'0 0.0
2014-Oct-26 05:33N 51°20' E 003°13'0 0.0
2014-Oct-26 02:21N 51°20' E 003°13'3 3.9
2014-Oct-26 01:33N 51°23' E 003°10'7 7.4
2014-Oct-26 00:33N 51°23' E 002°58'10 9.8
2014-Oct-25 23:33N 51°23' E 002°42'10 9.5
2014-Oct-25 22:27N 51°34' E 002°42'11 5.9
2014-Oct-25 20:33N 51°42' E 002°54'10 9.9
2014-Oct-25 19:33N 51°33' E 002°47'1110.7
2014-Oct-25 18:30N 51°22' E 002°48'1516.3
2014-Oct-25 17:33N 51°24' E 003°12'1515.1
2014-Oct-25 16:33N 51°26' E 003°36'1212.2
2014-Oct-25 15:33N 51°22' E 003°54'9 9.0
2014-Oct-25 14:33N 51°23' E 004°09'5 5.5
2014-Oct-25 13:34N 51°21' E 004°17'0 0.0
2014-Oct-25 12:33N 51°21' E 004°17'2 2.3
2014-Oct-25 11:33N 51°19' E 004°19'3 3.4
2014-Oct-25 10:32N 51°16' E 004°21'0 0.0
2014-Oct-25 09:32N 51°16' E 004°21'0 0.0
2014-Oct-25 08:32N 51°16' E 004°21'0 0.0
2014-Oct-25 07:32N 51°16' E 004°21'0 0.0
2014-Oct-25 06:32N 51°16' E 004°21'0 0.0
2014-Oct-25 05:26N 51°16' E 004°21'0 0.0
2014-Oct-25 04:32N 51°16' E 004°21'0 0.0
2014-Oct-25 03:32N 51°16' E 004°21'0 0.0
2014-Oct-25 02:32N 51°16' E 004°21'0 0.0
2014-Oct-25 01:23N 51°16' E 004°21'0 0.0
2014-Oct-25 00:29N 51°16' E 004°21'0 0.0
2014-Oct-24 23:32N 51°16' E 004°21'0 0.0
2014-Oct-24 22:32N 51°16' E 004°21'0 0.0
2014-Oct-24 21:32N 51°16' E 004°21'0 0.0
2014-Oct-24 20:29N 51°16' E 004°21'0 0.0
2014-Oct-24 19:32N 51°16' E 004°21'0 0.0
2014-Oct-24 18:32N 51°16' E 004°21'0 0.0
2014-Oct-24 17:28N 51°16' E 004°21'0 0.0
2014-Oct-24 16:33N 51°16' E 004°21'0 0.0
2014-Oct-24 15:26N 51°16' E 004°21'0 0.0
2014-Oct-24 14:32N 51°16' E 004°21'0 0.0
2014-Oct-24 13:29N 51°16' E 004°21'0 0.0
2014-Oct-24 12:32N 51°16' E 004°21'0 0.0
2014-Oct-24 11:26N 51°16' E 004°21'0 0.0
2014-Oct-24 10:34N 51°16' E 004°21'2 1.7
2014-Oct-24 09:33N 51°17' E 004°20'4 3.9
2014-Oct-24 08:34N 51°21' E 004°17'1 0.6
2014-Oct-24 07:34N 51°21' E 004°16'9 8.6
2014-Oct-24 06:33N 51°23' E 004°03'7 7.4
2014-Oct-24 05:34N 51°21' E 003°52'1110.8
2014-Oct-24 04:33N 51°26' E 003°36'1312.6
2014-Oct-24 03:33N 51°25' E 003°16'1716.8
2014-Oct-24 02:33N 51°22' E 002°50'1110.6
2014-Oct-24 01:32N 51°22' E 002°32'2121.0
2014-Oct-24 00:33N 51°12' E 002°03'2222.2
2014-Oct-23 23:33N 51°00' E 001°34'2120.6
2014-Oct-23 22:33N 50°41' E 001°22'2120.0
2014-Oct-23 21:29N 50°31' E 000°52'1920.9
2014-Oct-23 20:33N 50°26' E 000°23'2619.8
2014-Oct-23 19:15N 50°24' W 000°18'1419.7
2014-Oct-23 18:33N 50°31' W 000°36'1919.0
2014-Oct-23 17:33N 50°43' W 000°59'1414.3
2014-Oct-23 16:33N 50°50' W 001°19'6 4.6
2014-Oct-23 15:15N 50°54' W 001°26'0 0.0
2014-Oct-23 14:27N 50°54' W 001°26'0 0.0
2014-Oct-23 13:18N 50°54' W 001°26'0 0.0
2014-Oct-23 12:33N 50°54' W 001°26'0 0.0
2014-Oct-23 11:24N 50°54' W 001°26'0 0.0
2014-Oct-23 10:24N 50°54' W 001°26'0 0.0
2014-Oct-23 09:33N 50°54' W 001°26'0 0.0
2014-Oct-23 08:21N 50°54' W 001°26'0 0.0
2014-Oct-23 07:33N 50°54' W 001°26'0 0.0
2014-Oct-23 06:05N 50°54' W 001°26'0 0.7
2014-Oct-23 05:33N 50°54' W 001°25'9 8.9
2014-Oct-23 04:34N 50°46' W 001°18'1414.1
2014-Oct-23 03:34N 50°40' W 000°58'1313.5
2014-Oct-23 02:34N 50°31' W 001°13'4916.1
2014-Oct-22 23:33N 50°14' W 002°25'2019.8
2014-Oct-22 22:34N 50°07' W 002°54'2020.1
2014-Oct-22 21:33N 49°55' W 003°18'54019.0
2014-Oct-21 17:07N 42°08' W 009°49'15618.0
2014-Oct-21 08:29N 39°32' W 009°51'1617.2
2014-Oct-21 07:32N 39°16' W 009°51'1716.8
2014-Oct-21 06:33N 38°59' W 009°51'1717.1
2014-Oct-21 05:33N 38°42' W 009°52'1817.8
2014-Oct-21 04:32N 38°25' W 009°48'1818.1
2014-Oct-21 03:33N 38°07' W 009°43'1817.7
2014-Oct-21 02:33N 37°50' W 009°37'1817.7
2014-Oct-21 01:33N 37°33' W 009°31'1818.0
2014-Oct-21 00:33N 37°16' W 009°25'1717.4
2014-Oct-20 23:33N 36°59' W 009°20'3215.9
2014-Oct-20 21:33N 36°40' W 008°48'3617.3
2014-Oct-20 19:28N 36°28' W 008°06'1617.9
2014-Oct-20 18:34N 36°22' W 007°47'1818.2
2014-Oct-20 17:34N 36°16' W 007°25'2318.1
2014-Oct-20 16:18N 36°08' W 006°59'1317.7
2014-Oct-20 15:33N 36°04' W 006°43'1817.7
2014-Oct-20 14:34N 35°59' W 006°22'3717.4
2014-Oct-20 12:25N 35°58' W 005°36'1416.4
2014-Oct-20 11:34N 36°06' W 005°23'2 2.3
2014-Oct-20 10:30N 36°09' W 005°22'0 0.0
2014-Oct-20 09:30N 36°09' W 005°22'0 0.0
2014-Oct-20 07:33N 36°09' W 005°22'0 0.0
2014-Oct-20 06:33N 36°09' W 005°22'0 0.0
2014-Oct-20 05:33N 36°09' W 005°22'2 2.5
2014-Oct-20 04:34N 36°06' W 005°22'15016.5
2014-Oct-19 19:28N 36°26' W 002°18'1516.1
2014-Oct-19 18:33N 36°34' W 002°03'2417.1
2014-Oct-19 17:08N 36°53' W 001°43'1017.1
2014-Oct-19 16:34N 37°00' W 001°35'3917.4
2014-Oct-19 14:18N 37°30' W 001°03'6 0.7
2014-Oct-19 05:18N 37°36' W 000°59'7 6.9
2014-Oct-19 04:15N 37°32' W 000°51'1217.0
2014-Oct-19 03:34N 37°33' W 000°36'1717.1
2014-Oct-19 02:33N 37°42' W 000°18'1716.7
2014-Oct-19 01:32N 37°51' E 000°01'1616.3
2014-Oct-19 00:33N 37°58' E 000°19'1616.2
2014-Oct-18 23:33N 38°05' E 000°37'1716.1
2014-Oct-18 22:29N 38°13' E 000°56'1516.0
2014-Oct-18 21:32N 38°20' E 001°14'2016.7
2014-Oct-18 20:21N 38°31' E 001°35'1915.8
2014-Oct-18 19:08N 38°44' E 001°53'1016.3
2014-Oct-18 18:32N 38°52' E 002°01'1716.5
2014-Oct-18 17:30N 39°06' E 002°13'1616.6
2014-Oct-18 16:33N 39°18' E 002°26'1716.9
2014-Oct-18 15:33N 39°32' E 002°38'1 1.0
2014-Oct-18 14:32N 39°33' E 002°38'0 0.0
2014-Oct-18 13:31N 39°33' E 002°38'0 0.0
2014-Oct-18 12:31N 39°33' E 002°38'0 0.0
2014-Oct-18 11:31N 39°33' E 002°38'0 0.0
2014-Oct-18 10:31N 39°33' E 002°38'0 0.0
2014-Oct-18 08:19N 39°33' E 002°38'0 0.0
2014-Oct-18 07:31N 39°33' E 002°38'1313.4
2014-Oct-18 06:32N 39°21' E 002°45'1313.5
2014-Oct-18 05:33N 39°33' E 002°38'10 9.8
2014-Oct-18 04:33N 39°24' E 002°42'1716.7
2014-Oct-18 03:33N 39°15' E 002°60'1312.8
2014-Oct-18 02:31N 39°14' E 003°17'1212.9
2014-Oct-18 01:33N 39°19' E 003°32'1312.8
2014-Oct-18 00:33N 39°24' E 003°48'1412.9
2014-Oct-17 23:29N 39°29' E 004°04'1212.7
2014-Oct-17 22:32N 39°33' E 004°19'1612.3
2014-Oct-17 21:13N 39°42' E 004°36'812.5
2014-Oct-17 20:33N 39°48' E 004°43'5712.7
2014-Oct-17 16:04N 40°30' E 005°35'22312.0
2014-Oct-16 21:33N 43°04' E 009°11'1212.2
2014-Oct-16 20:33N 43°09' E 009°26'1212.1
2014-Oct-16 19:33N 43°14' E 009°41'1312.7
2014-Oct-16 18:33N 43°19' E 009°57'1212.2
2014-Oct-16 17:33N 43°28' E 010°09'9 8.4
2014-Oct-16 16:32N 43°33' E 010°18'0 0.0
2014-Oct-16 15:32N 43°33' E 010°18'0 0.0
2014-Oct-16 14:32N 43°33' E 010°18'0 0.0
2014-Oct-16 13:32N 43°33' E 010°18'0 0.0
2014-Oct-16 12:32N 43°33' E 010°18'0 0.0
2014-Oct-16 11:32N 43°33' E 010°18'0 0.0
2014-Oct-16 10:32N 43°33' E 010°18'0 0.0
2014-Oct-16 09:29N 43°33' E 010°18'0 0.0
2014-Oct-16 08:32N 43°33' E 010°18'  
Track history (hours):
 
Tides and Currents Weather Stations Pressure Air Temp Water Temp Dewpoint Dewpoint Depression Visibility Wind Speed Wind Dir Waves Ship Positions

Oriana (Bermuda)

Last reported at 2014-Oct-26 08:09 UTC. Time now 2014-Oct-26 09:25 UTC.
Position N 51°20' E 003°13'.

Length 261 m; beam 32.2 m; draft 8.2 m.

Type: Ship. MMSI: 310529000.

Date/timePositionNaut miles runAvg speedWind from/ knotsBaromVisibWave heightAir tempDewpointWater temp
2014-Oct-26 08:09N 51°20' E 003°13'0 0.0
2014-Oct-26 05:33N 51°20' E 003°13'0 0.0
2014-Oct-26 02:21N 51°20' E 003°13'3 3.9
2014-Oct-26 01:33N 51°23' E 003°10'7 7.4
2014-Oct-26 00:33N 51°23' E 002°58'10 9.8
2014-Oct-25 23:33N 51°23' E 002°42'10 9.5
2014-Oct-25 22:27N 51°34' E 002°42'11 5.9
2014-Oct-25 20:33N 51°42' E 002°54'10 9.9
2014-Oct-25 19:33N 51°33' E 002°47'1110.7
2014-Oct-25 18:30N 51°22' E 002°48'1516.3
2014-Oct-25 17:33N 51°24' E 003°12'1515.1
2014-Oct-25 16:33N 51°26' E 003°36'1212.2
2014-Oct-25 15:33N 51°22' E 003°54'9 9.0
2014-Oct-25 14:33N 51°23' E 004°09'5 5.5
2014-Oct-25 13:34N 51°21' E 004°17'0 0.0
2014-Oct-25 12:33N 51°21' E 004°17'2 2.3
2014-Oct-25 11:33N 51°19' E 004°19'3 3.4
2014-Oct-25 10:32N 51°16' E 004°21'0 0.0
2014-Oct-25 09:32N 51°16' E 004°21'0 0.0
2014-Oct-25 08:32N 51°16' E 004°21'0 0.0
2014-Oct-25 07:32N 51°16' E 004°21'0 0.0
2014-Oct-25 06:32N 51°16' E 004°21'0 0.0
2014-Oct-25 05:26N 51°16' E 004°21'0 0.0
2014-Oct-25 04:32N 51°16' E 004°21'0 0.0
2014-Oct-25 03:32N 51°16' E 004°21'0 0.0
2014-Oct-25 02:32N 51°16' E 004°21'0 0.0
2014-Oct-25 01:23N 51°16' E 004°21'0 0.0
2014-Oct-25 00:29N 51°16' E 004°21'0 0.0
2014-Oct-24 23:32N 51°16' E 004°21'0 0.0
2014-Oct-24 22:32N 51°16' E 004°21'0 0.0
2014-Oct-24 21:32N 51°16' E 004°21'0 0.0
2014-Oct-24 20:29N 51°16' E 004°21'0 0.0
2014-Oct-24 19:32N 51°16' E 004°21'0 0.0
2014-Oct-24 18:32N 51°16' E 004°21'0 0.0
2014-Oct-24 17:28N 51°16' E 004°21'0 0.0
2014-Oct-24 16:33N 51°16' E 004°21'0 0.0
2014-Oct-24 15:26N 51°16' E 004°21'0 0.0
2014-Oct-24 14:32N 51°16' E 004°21'0 0.0
2014-Oct-24 13:29N 51°16' E 004°21'0 0.0
2014-Oct-24 12:32N 51°16' E 004°21'0 0.0
2014-Oct-24 11:26N 51°16' E 004°21'0 0.0
2014-Oct-24 10:34N 51°16' E 004°21'2 1.7
2014-Oct-24 09:33N 51°17' E 004°20'4 3.9
2014-Oct-24 08:34N 51°21' E 004°17'1 0.6
2014-Oct-24 07:34N 51°21' E 004°16'9 8.6
2014-Oct-24 06:33N 51°23' E 004°03'7 7.4
2014-Oct-24 05:34N 51°21' E 003°52'1110.8
2014-Oct-24 04:33N 51°26' E 003°36'1312.6
2014-Oct-24 03:33N 51°25' E 003°16'1716.8
2014-Oct-24 02:33N 51°22' E 002°50'1110.6
2014-Oct-24 01:32N 51°22' E 002°32'2121.0
2014-Oct-24 00:33N 51°12' E 002°03'2222.2
2014-Oct-23 23:33N 51°00' E 001°34'2120.6
2014-Oct-23 22:33N 50°41' E 001°22'2120.0
2014-Oct-23 21:29N 50°31' E 000°52'1920.9
2014-Oct-23 20:33N 50°26' E 000°23'2619.8
2014-Oct-23 19:15N 50°24' W 000°18'1419.7
2014-Oct-23 18:33N 50°31' W 000°36'1919.0
2014-Oct-23 17:33N 50°43' W 000°59'1414.3
2014-Oct-23 16:33N 50°50' W 001°19'6 4.6
2014-Oct-23 15:15N 50°54' W 001°26'0 0.0
2014-Oct-23 14:27N 50°54' W 001°26'0 0.0
2014-Oct-23 13:18N 50°54' W 001°26'0 0.0
2014-Oct-23 12:33N 50°54' W 001°26'0 0.0
2014-Oct-23 11:24N 50°54' W 001°26'0 0.0
2014-Oct-23 10:24N 50°54' W 001°26'0 0.0
2014-Oct-23 09:33N 50°54' W 001°26'0 0.0
2014-Oct-23 08:21N 50°54' W 001°26'0 0.0
2014-Oct-23 07:33N 50°54' W 001°26'0 0.0
2014-Oct-23 06:05N 50°54' W 001°26'0 0.7
2014-Oct-23 05:33N 50°54' W 001°25'9 8.9
2014-Oct-23 04:34N 50°46' W 001°18'1414.1
2014-Oct-23 03:34N 50°40' W 000°58'1313.5
2014-Oct-23 02:34N 50°31' W 001°13'4916.1
2014-Oct-22 23:33N 50°14' W 002°25'2019.8
2014-Oct-22 22:34N 50°07' W 002°54'2020.1
2014-Oct-22 21:33N 49°55' W 003°18'54019.0
2014-Oct-21 17:07N 42°08' W 009°49'15618.0
2014-Oct-21 08:29N 39°32' W 009°51'1617.2
2014-Oct-21 07:32N 39°16' W 009°51'1716.8
2014-Oct-21 06:33N 38°59' W 009°51'1717.1
2014-Oct-21 05:33N 38°42' W 009°52'1817.8
2014-Oct-21 04:32N 38°25' W 009°48'1818.1
2014-Oct-21 03:33N 38°07' W 009°43'1817.7
2014-Oct-21 02:33N 37°50' W 009°37'1817.7
2014-Oct-21 01:33N 37°33' W 009°31'1818.0
2014-Oct-21 00:33N 37°16' W 009°25'1717.4
2014-Oct-20 23:33N 36°59' W 009°20'3215.9
2014-Oct-20 21:33N 36°40' W 008°48'3617.3
2014-Oct-20 19:28N 36°28' W 008°06'1617.9
2014-Oct-20 18:34N 36°22' W 007°47'1818.2
2014-Oct-20 17:34N 36°16' W 007°25'2318.1
2014-Oct-20 16:18N 36°08' W 006°59'1317.7
2014-Oct-20 15:33N 36°04' W 006°43'1817.7
2014-Oct-20 14:34N 35°59' W 006°22'3717.4
2014-Oct-20 12:25N 35°58' W 005°36'1416.4
2014-Oct-20 11:34N 36°06' W 005°23'2 2.3
2014-Oct-20 10:30N 36°09' W 005°22'0 0.0
2014-Oct-20 09:30N 36°09' W 005°22'0 0.0
2014-Oct-20 07:33N 36°09' W 005°22'0 0.0
2014-Oct-20 06:33N 36°09' W 005°22'0 0.0
2014-Oct-20 05:33N 36°09' W 005°22'2 2.5
2014-Oct-20 04:34N 36°06' W 005°22'15016.5
2014-Oct-19 19:28N 36°26' W 002°18'1516.1
2014-Oct-19 18:33N 36°34' W 002°03'2417.1
2014-Oct-19 17:08N 36°53' W 001°43'1017.1
2014-Oct-19 16:34N 37°00' W 001°35'3917.4
2014-Oct-19 14:18N 37°30' W 001°03'6 0.7
2014-Oct-19 05:18N 37°36' W 000°59'7 6.9
2014-Oct-19 04:15N 37°32' W 000°51'1217.0
2014-Oct-19 03:34N 37°33' W 000°36'1717.1
2014-Oct-19 02:33N 37°42' W 000°18'1716.7
2014-Oct-19 01:32N 37°51' E 000°01'1616.3
2014-Oct-19 00:33N 37°58' E 000°19'1616.2
2014-Oct-18 23:33N 38°05' E 000°37'1716.1
2014-Oct-18 22:29N 38°13' E 000°56'1516.0
2014-Oct-18 21:32N 38°20' E 001°14'2016.7
2014-Oct-18 20:21N 38°31' E 001°35'1915.8
2014-Oct-18 19:08N 38°44' E 001°53'1016.3
2014-Oct-18 18:32N 38°52' E 002°01'1716.5
2014-Oct-18 17:30N 39°06' E 002°13'1616.6
2014-Oct-18 16:33N 39°18' E 002°26'1716.9
2014-Oct-18 15:33N 39°32' E 002°38'1 1.0
2014-Oct-18 14:32N 39°33' E 002°38'0 0.0
2014-Oct-18 13:31N 39°33' E 002°38'0 0.0
2014-Oct-18 12:31N 39°33' E 002°38'0 0.0
2014-Oct-18 11:31N 39°33' E 002°38'0 0.0
2014-Oct-18 10:31N 39°33' E 002°38'0 0.0
2014-Oct-18 08:19N 39°33' E 002°38'0 0.0
2014-Oct-18 07:31N 39°33' E 002°38'1313.4
2014-Oct-18 06:32N 39°21' E 002°45'1313.5
2014-Oct-18 05:33N 39°33' E 002°38'10 9.8
2014-Oct-18 04:33N 39°24' E 002°42'1716.7
2014-Oct-18 03:33N 39°15' E 002°60'1312.8
2014-Oct-18 02:31N 39°14' E 003°17'1212.9
2014-Oct-18 01:33N 39°19' E 003°32'1312.8
2014-Oct-18 00:33N 39°24' E 003°48'1412.9
2014-Oct-17 23:29N 39°29' E 004°04'1212.7
2014-Oct-17 22:32N 39°33' E 004°19'1612.3
2014-Oct-17 21:13N 39°42' E 004°36'812.5
2014-Oct-17 20:33N 39°48' E 004°43'5712.7
2014-Oct-17 16:04N 40°30' E 005°35'22312.0
2014-Oct-16 21:33N 43°04' E 009°11'1212.2
2014-Oct-16 20:33N 43°09' E 009°26'1212.1
2014-Oct-16 19:33N 43°14' E 009°41'1312.7
2014-Oct-16 18:33N 43°19' E 009°57'1212.2
2014-Oct-16 17:33N 43°28' E 010°09'9 8.4
2014-Oct-16 16:32N 43°33' E 010°18'0 0.0
2014-Oct-16 15:32N 43°33' E 010°18'0 0.0
2014-Oct-16 14:32N 43°33' E 010°18'0 0.0
2014-Oct-16 13:32N 43°33' E 010°18'0 0.0
2014-Oct-16 12:32N 43°33' E 010°18'0 0.0
2014-Oct-16 11:32N 43°33' E 010°18'0 0.0
2014-Oct-16 10:32N 43°33' E 010°18'0 0.0
2014-Oct-16 09:29N 43°33' E 010°18'0 0.0
2014-Oct-16 08:32N 43°33' E 010°18'  

Dump ship's entire track history